Tracking 28531 objects as of 2-Mar-2024
HD Live streaming from Space Station
objects crossing your sky now

ICEYE-X32

Track ICEYE-X32 now!
10-day predictions


NORAD ID: 58293
Int'l Code: 2023-174AP
Perigee: 513.2 km
Apogee: 526.1 km
Inclination: 97.5 °
Period: 94.9 minutes
Semi major axis: 6890 km
RCS: Unknown
Launch date: November 11, 2023
Source: (FIN)
Launch site: AIR FORCE WESTERN TEST RANGE (AFWTR)
Your satellite tracking list
Your tracking list is empty




NASA's NSSDC Master Catalog

Two Line Element Set (TLE):
1 58293U 23174AP  24062.12018129  .00013264  00000-0  65815-3 0  9996
2 58293  97.4663 138.3588 0009410 239.0625 120.9684 15.17793847 17472
Source of the keplerian elements: AFSPC